Zurück zum Katalog

ONEWEB-0272

AktivKommunikationPO
NORAD 48990·PAYLOAD·🇬🇧 United Kingdom

Gestartet Jul 1, 2021 von Vostochny Cosmodrome

Loading…

Nächste Überflüge (nächste 24 Stunden)

TLE

AktuellSource: CelesTrak SupGP

Epoche: Sep 14, 2026, 14:04 UTC

1 48990C 21060Z   26257.58661296 -.00000076  00000+0 -19779-3 0  2571
2 48990  87.9145 211.0288 0002362  82.4457  18.0467 13.16591014    19

Verfolge ONEWEB-0272 in Echtzeit mit AllMySat

Download on the App Store